Location: Pace/Milton
(30.6162°N, 87.1503°W)
Time: 11:15:23
(UTC-06:00)

Envisat - Pass Details

Date: 15 December 2021
Orbit: 764 x 766 km, 98.2° (Epoch: 23 January)

Event Time Altitude Azimuth Distance (km) Brightness Sun altitude
Rises 04:26:58 0° 16° (NNE) 3,233 6.3 -27.5°
Reaches altitude 10° 04:29:19 10° 19° (NNE) 2,303 5.5 -27.0°
Maximum altitude 04:34:20 64° 101° (E) 844 3.3 -25.9°
Drops below altitude 10° 04:39:21 10° 183° (S) 2,290 5.6 -24.9°
Sets 04:41:39 0° 186° (S) 3,212 6.3 -24.4°
